SCP
0 0 0 0 0 0 0 0 0 0 0 0 0 0 0 0 0 0 0 0 0 0 0 0 0 0 0 0 0 0 0 0 0 0 0 0 0 0 0 0 0 0 0
0 0 0 0 0 0 0 0 0 0 0 0 0 0 0 0 0 0 0 0 0 0 0 0 0 0 0 0 0 0 0 0 0 0 0 0 0 0 0 0 0 0 0
0 0 0 0 0 0 0 0 0 0 0 0 0 0 0 0 0 0 0 0 0 0 0 0 0 0 0 0 0 0 0 0 0 0 0 0 0 0 0 0 0 0 0
0 0 0 0 0 0 0 0 0 0 0 0 0 0 0 0 0 0 0 0 0 0 0 0 0 0 0 0 0 0 0 0 0 0 0 0 0 0 0 0 0 0 0
0 0 0 0 0 0 0 0 0 0 0 0 0 0 0 0 0 0 0 0 0 0 0 0 0 0 0 0 0 0 0 0 0 0 0 0 0 0 0 0 0 0 0
0 0 0 0 0 0 0 0 0 0 0 0 0 0 0 0 0 0 0 0 0 0 0 0 0 0 0 0 0 0 0 0 0 0 0 0 0 0 0 0 0 0 0
0 0 0 0 0 0 0 0 0 0 0 0 0 0 0 0 0 0 0 0 0 0 0 0 0 0 0 0 0 0 0 0 0 0 0 0 0 0 0 0 0 0 0
0 0 0 0 0 0 0 0 0 0 0 0 0 0 0 0 0 0 0 0 0 0 0 0 0 0 0 0 0 0 0 0 0 0 0 0 0 0 0 0 0 0 0
0 0 0 0 0 0 0 0 0 0 0 0 0 0 0 0 0 0 0 0 0 0 0 0 0 0 0 0 0 0 0 0 0 0 0 0 0 0 0 0 0 0 0
0 0 0 0 0 0 0 0 0 0 0 0 0 0 0 0 0 0 0 0 0 0 0 0 0 0 0 0 0 0 0 0 0 0 0 0 0 0 0 0 0 0 0
0 0 0 0 0 0 0 0 0 0 0 0 0 0 0 0 0 0 0 0 0 0 0 0 0 0 0 0 0 0 0 0 0 0 0 0 0 0 0 0 0 0 0
0 0 0 0 0 0 0 0 0 0 0 0 0 0 0 0 0 0 0 0 0 0 0 0 0 0 0 0 0 0 0 0 0 0 0 0 0 0 0 0 0 0 0
0 0 0 0 0 0 0 0 0 0 0 0 0 0 0 0 0 0 0 0 0 0 0 0 0 0 0 0 0 0 0 0 0 0 0 0 0 0 0 0 0 0 0
0 0 0 0 0 0 0 0 0 0 0 0 0 0 0 0 0 0 0 0 0 0 0 0 0 0 0 0 0 0 0 0 0 0 0 0 0 0 0 0 0 0 0
0 0 0 0 0 0 0 0 0 0 0 0 0 0 0 0 0 0 0 0 0 0 0 0 0 0 0 0 0 0 0 0 0 0 0 0 0 0 0 0 0 0 0
0 0 0 0 0 0 0 0 0 0 0 0 0 0 0 0 0 0 0 0 0 0 0 0 0 0 0 0 0 0 0 0 0 0 0 0 0 0 0 0 0 0 0
0 0 0 0 0 0 0 0 0 0 0 0 0 0 0 0 0 0 0 0 0 0 0 0 0 0 0 0 0 0 0 0 0 0 0 0 0 0 0 0 0 0 0
0 0 0 0 0 0 0 0 0 0 0 0 0 0 0 0 0 0 0 0 0 0 0 0 0 0 0 0 0 0 0 0 0 0 0 0 0 0 0 0 0 0 0
0 0 0 0 0 0 0 0 0 0 0 0 0 0 0 0 0 0 0 0 0 0 0 0 0 0 0 0 0 0 0 0 0 0 0 0 0 0 0 0 0 0 0
0 0 0 0 0 0 0 0 0 0 0 0 0 0 0 0 0 0 0 0 0 0 0 0 0 0 0 0 0 0 0 0 0 0 0 0 0 0 0 0 0 0 0
0 0 0 0 0 0 0 0 0 0 0 0 0 0 0 0 0 0 0 0 0 0 0 0 0 0 0 0 0 0 0 0 0 0 0 0 0 0 0 0 0 0 0
0 0 0 0 0 0 0 0 0 0 0 0 0 0 0 0 0 0 0 0 0 0 0 0 0 0 0 0 0 0 0 0 0 0 0 0 0 0 0 0 0 0 0
0 0 0 0 0 0 0 0 0 0 0 0 0 0 0 0 0 0 0 0 0 0 0 0 0 0 0 0 0 0 0 0 0 0 0 0 0 0 0 0 0 0 0
0 0 0 0 0 0 0 0 0 0 0 0 0 0 0 0 0 0 0 0 0 0 0 0 0 0 0 0 0 0 0 0 0 0 0 0 0 0 0 0 0 0 0
0 0 0 0 0 0 0 0 0 0 0 0 0 0 0 0 0 0 0 0 0 0 0 0 0 0 0 0 0 0 0 0 0 0 0 0 0 0 0 0 0 0 0
0 0 0 -0 0 0 0 0 0 0 0 0 0 0 0 0 0 0 0 0 0 0 0 0 0 0 0 0 0 0 0 0 0 0 0 0 0 0 0 0 0 0 0
Wind_Speed
14 15 15 15 15 14 13 14 14 12 13 14 14 14 13 13 12 11 10 10 10 8 7 8 8 6 5 4 3 3 3 3 4 3 1 1 1 2 2 2 2 3 4
13 13 15 14 14 15 14 14 13 14 13 13 13 13 13 13 13 13 12 11 12 11 10 9 8 6 7 5 4 4 4 4 4 4 2 1 2 2 2 3 3 3 3
10 12 13 13 14 15 14 13 13 13 13 13 13 14 14 13 13 12 12 11 11 11 11 10 9 9 8 6 6 5 4 3 3 3 2 1 1 1 2 3 3 3 4
9 11 13 14 14 14 13 13 14 14 14 14 13 13 13 12 12 12 11 11 10 9 9 10 9 10 10 8 6 6 5 4 3 2 2 1 1 1 1 2 3 2 4
8 10 11 12 12 11 12 12 12 13 14 13 12 12 11 11 11 12 12 11 11 10 8 8 9 10 11 9 6 6 6 4 3 2 2 1 1 1 1 1 2 3 3
7 9 8 9 10 11 12 11 12 12 12 12 13 13 12 10 14 17 14 11 10 10 9 8 7 9 10 11 10 10 9 7 5 4 3 3 3 2 1 1 1 3 3
6 6 8 9 10 10 11 12 12 12 12 12 12 12 12 13 17 19 17 11 10 10 9 8 6 6 8 6 7 8 7 6 7 5 4 4 3 3 2 1 1 2 3
5 6 8 9 10 9 10 11 12 11 11 11 12 12 11 12 18 19 18 11 9 8 8 9 8 8 8 8 7 5 4 3 4 3 3 3 2 2 2 2 1 1 2
6 7 8 9 10 11 11 11 9 10 10 10 11 12 12 12 17 19 17 9 7 7 7 8 8 8 11 13 9 7 5 2 3 4 4 4 4 4 3 2 2 2 2
6 6 7 8 10 11 11 10 8 8 9 10 9 10 11 11 17 19 18 8 8 7 6 6 10 10 13 14 9 8 7 4 4 4 4 4 4 3 4 2 2 1 1
4 5 6 7 8 9 9 8 9 8 9 9 9 8 9 11 16 20 19 9 9 8 7 5 6 13 13 13 10 6 7 7 5 4 3 2 2 2 1 1 1 1 1
4 5 6 7 7 7 9 9 9 10 10 9 9 8 6 8 12 16 19 15 13 9 7 6 7 14 13 12 8 9 11 9 5 4 3 2 1 0 1 1 1 1 1
4 5 6 6 7 8 10 10 9 9 8 8 8 8 7 6 8 16 18 17 15 8 7 11 13 15 13 9 10 12 9 5 4 3 2 1 1 1 1 1 2 2 3
5 6 6 7 7 8 7 8 9 9 9 8 8 8 8 7 7 8 9 10 12 10 9 12 15 14 9 9 9 6 4 4 4 3 2 1 1 1 1 1 1 2 2
6 6 6 6 8 8 6 6 7 7 9 10 9 9 11 10 10 15 12 10 9 10 11 7 6 6 5 4 4 4 3 3 3 2 3 2 1 1 1 1 1 1 1
6 6 5 5 6 7 7 5 5 6 10 11 11 11 8 11 18 19 18 18 19 21 12 8 7 6 6 6 5 4 3 3 3 3 3 2 2 1 0 1 1 1 2
7 6 5 6 7 7 8 8 7 7 9 10 12 13 14 18 20 20 20 21 21 18 8 7 7 7 6 6 5 4 3 3 3 3 3 2 2 1 1 1 1 2 2
6 6 6 6 7 7 7 7 8 9 7 5 7 13 17 19 20 21 22 17 10 7 5 7 7 6 6 6 5 5 4 4 3 3 3 2 2 1 1 0 1 1 2
6 6 5 6 6 7 7 7 7 8 8 7 7 9 14 17 19 19 17 8 9 7 6 6 6 6 6 6 5 5 5 4 4 3 3 2 2 2 1 0 1 3 2
5 8 7 7 8 8 8 8 8 8 8 8 8 9 9 10 9 9 6 6 7 7 7 7 6 6 6 6 6 5 5 4 4 3 3 2 2 2 1 1 1 1 2
6 7 9 8 7 8 8 8 8 9 8 8 7 9 13 9 9 9 7 6 7 7 7 7 7 7 6 6 5 6 6 4 4 4 3 3 2 1 1 1 1 1 1
6 6 7 8 8 8 8 8 8 8 9 9 8 9 13 8 7 7 6 6 6 6 6 7 6 6 6 6 7 6 5 5 4 4 3 3 2 2 1 0 0 1 1
7 7 7 7 7 10 9 7 8 9 9 9 9 8 8 7 7 7 7 7 6 6 6 6 7 6 5 5 5 6 6 6 5 5 5 3 2 2 1 1 0 1 1
7 8 8 8 8 8 8 8 8 8 9 9 9 8 8 8 8 8 7 7 7 6 6 6 6 8 9 6 4 4 4 5 5 5 6 5 3 2 2 1 0 1 1
7 8 8 8 8 8 8 9 9 9 9 9 9 8 8 8 8 8 7 7 8 7 8 7 6 7 9 8 6 5 8 9 7 5 5 4 4 3 2 1 1 0 1
7 8 7 7 8 8 9 9 9 10 9 9 9 9 9 9 9 8 8 7 7 7 7 6 7 8 8 7 7 9 10 9 9 8 5 4 4 3 2 1 1 0 0
Wind_Direction
203 202 200 200 198 193 194 196 193 186 183 184 185 185 186 185 183 184 184 178 184 185 183 186 192 180 179 182 174 170 180 175 217 259 236 255 266 292 311 302 289 287 299
202 202 201 197 195 194 196 194 189 187 186 185 181 183 185 185 183 185 184 183 185 187 187 186 190 180 187 182 179 186 192 191 199 239 243 238 249 276 299 302 310 307 295
200 199 197 194 194 195 194 190 186 186 184 182 181 183 184 184 183 185 183 184 187 188 186 188 188 181 190 187 184 190 193 189 192 209 239 226 259 296 315 305 306 302 310
199 197 198 195 195 195 190 186 184 183 182 183 183 183 182 181 181 180 179 180 183 185 186 188 186 186 191 188 188 193 180 176 176 192 222 231 251 287 297 302 313 315 313
198 197 200 195 190 188 184 183 181 181 181 180 178 179 177 178 181 178 177 178 179 181 182 185 187 186 187 184 182 182 173 176 174 184 205 213 239 274 271 269 294 319 304
200 198 193 186 183 182 181 177 176 177 176 175 178 178 179 183 177 175 175 177 178 179 180 182 180 183 186 185 181 175 172 175 181 178 196 215 232 230 228 273 308 337 307
202 192 185 182 180 180 174 173 176 175 172 174 177 177 181 181 173 173 174 173 176 179 178 175 171 177 175 173 173 167 172 173 169 170 185 206 210 211 191 212 237 259 267
200 186 181 179 178 172 171 175 176 173 174 176 176 177 177 177 171 171 169 171 170 173 174 172 171 172 172 162 153 151 156 166 171 165 174 190 188 175 175 180 212 285 291
199 188 182 178 174 171 172 173 172 169 171 172 173 172 173 172 169 168 163 167 164 165 165 166 166 168 166 157 151 151 146 141 122 123 112 102 97 96 98 86 54 19 319
201 191 182 178 175 175 173 168 163 163 166 163 165 171 172 170 169 167 162 161 160 157 154 162 166 164 162 159 158 157 161 164 140 119 93 74 74 77 80 106 148 112 321
191 176 172 174 174 169 162 160 156 153 155 158 160 163 169 170 166 166 164 163 162 158 160 164 166 162 160 161 158 161 163 147 137 129 114 91 72 67 55 40 104 157 193
169 167 168 167 163 158 155 156 156 154 155 157 155 155 159 161 163 168 167 164 159 157 162 159 156 156 155 152 150 147 139 128 122 121 117 112 100 60 360 8 1 338 243
162 164 164 160 160 159 158 157 156 156 157 160 159 159 154 151 157 161 162 159 154 147 148 149 145 144 141 141 141 138 133 127 129 131 141 156 156 139 69 31 12 359 345
166 162 161 158 157 157 158 160 160 162 159 159 161 159 152 150 151 152 152 148 143 134 130 132 130 129 124 126 128 125 122 134 137 143 142 128 109 100 81 41 6 353 353
166 161 162 162 157 154 154 161 163 169 168 164 165 162 160 165 170 159 153 152 151 144 131 120 121 128 129 122 117 116 116 119 119 122 126 123 114 90 45 27 32 14 352
165 164 164 160 152 148 141 120 104 135 146 152 157 156 157 154 151 154 152 149 146 143 133 139 145 147 150 148 145 136 131 134 132 129 129 131 135 130 63 12 16 5 324
174 171 165 160 154 152 148 143 130 105 111 133 146 150 149 149 150 151 149 146 146 143 135 147 152 154 151 149 149 148 149 145 138 136 136 138 136 131 100 14 351 340 325
171 170 167 163 156 152 148 146 144 143 138 125 133 144 146 147 148 148 145 137 142 143 143 149 152 151 149 150 150 147 142 139 137 139 141 142 140 139 124 347 319 318 319
168 164 160 153 148 144 141 139 138 138 138 136 129 133 140 141 142 146 145 144 151 151 145 144 145 146 146 147 148 147 147 149 148 148 151 152 150 141 154 267 304 328 341
166 165 160 151 146 145 145 144 143 142 142 145 146 144 141 139 143 147 145 140 144 145 144 143 142 143 145 146 146 145 145 147 149 151 156 157 156 159 176 211 279 303 303
158 156 155 149 149 150 149 148 146 145 147 146 146 153 154 151 150 150 149 148 149 148 146 143 142 145 145 143 145 148 150 154 158 160 160 160 158 160 174 199 254 290 310
157 157 156 151 147 146 146 145 144 145 147 144 140 142 146 138 139 140 140 139 135 135 139 140 143 147 151 152 153 154 157 161 164 163 161 160 159 157 154 162 293 314 325
153 151 147 145 143 146 143 143 145 147 147 146 144 142 143 140 138 137 136 133 131 129 130 133 135 136 136 140 148 157 163 170 170 166 161 159 159 160 160 166 208 313 320
153 152 150 147 145 146 146 147 147 146 145 145 144 143 142 140 137 135 135 133 130 129 130 132 135 141 141 139 139 145 151 153 152 156 157 158 161 163 161 159 192 267 287
152 151 151 150 149 148 148 148 148 147 144 143 142 140 138 136 134 134 134 132 133 132 131 129 130 136 141 143 145 149 153 151 150 149 148 150 155 160 160 159 169 271 314
149 149 149 147 148 151 152 151 150 147 145 143 141 141 141 139 138 137 137 136 134 132 130 128 132 136 139 141 147 151 150 150 150 149 144 143 147 152 150 149 151 173 296